CAPE
0 0 0 0 0 0 0 0 0 0 0 0 0 0 0 0 0 0 0 0 0 0 0 0 0 0 0 0 0 0 0 0 0 0 0 0 0 0 0 0 0 0 0 0 0 0 1
0 0 0 0 0 0 0 0 0 0 0 0 0 0 0 0 0 0 0 0 0 0 0 0 0 0 0 0 0 0 0 0 0 0 0 0 0 0 0 0 0 0 0 0 0 0 0
17 1 0 0 0 0 0 0 0 0 0 0 0 0 0 0 0 0 0 0 0 0 0 0 0 0 0 0 0 0 0 0 0 0 0 0 0 0 0 0 0 0 0 0 0 0 0
3 3 17 1 0 0 0 0 0 0 0 0 0 0 0 0 0 0 0 0 0 0 0 0 0 0 0 0 0 0 0 0 0 0 0 0 0 0 0 0 0 0 0 0 0 0 0
1 4 1 4 12 0 0 0 0 0 0 0 0 0 0 0 0 0 0 0 0 0 0 0 0 0 0 0 0 0 0 0 0 0 0 0 0 0 0 0 0 0 0 0 0 0 0
8 4 0 0 0 6 2 0 0 0 0 0 0 0 0 0 0 0 0 0 0 0 0 0 0 0 0 0 0 0 0 0 0 0 0 0 0 0 0 0 0 0 0 0 0 0 0
5 3 4 1 0 0 0 11 0 0 0 0 0 0 0 0 0 0 0 0 0 0 0 0 0 0 0 0 0 0 0 0 0 0 0 0 0 0 0 0 0 0 0 0 0 0 0
10 7 5 5 3 4 0 0 13 0 0 0 0 0 0 0 0 0 0 0 0 0 0 0 0 0 0 0 0 0 0 0 0 0 0 0 0 0 0 0 0 0 0 0 0 0 0
12 10 8 1 3 3 7 1 0 4 0 0 0 0 0 0 0 0 0 0 0 0 0 0 0 0 0 0 0 0 0 0 0 0 0 0 0 0 0 0 0 0 0 0 0 0 0
1 3 3 5 2 2 3 2 0 0 6 0 0 0 0 0 0 0 0 0 0 0 0 0 0 0 0 0 0 0 0 0 0 0 0 0 0 0 0 0 0 0 0 0 0 0 0
0 0 0 0 0 0 0 0 0 0 1 4 0 0 0 0 0 0 0 0 0 0 0 0 0 0 0 0 0 0 0 0 0 0 0 0 0 0 0 0 0 0 0 0 0 0 0
2 3 3 4 4 0 0 0 0 0 0 7 0 0 0 0 0 0 0 0 0 0 0 0 0 0 0 0 0 0 0 0 0 0 0 0 0 0 0 0 0 0 0 0 0 0 0
22 16 12 7 4 6 2 0 0 0 0 2 12 0 0 0 0 0 0 0 0 0 0 0 0 0 0 0 0 0 0 0 0 0 0 0 0 0 0 0 0 0 0 0 0 0 0
13 14 12 15 10 2 1 0 0 0 1 0 14 4 0 0 0 0 0 0 0 0 0 0 0 0 0 0 0 0 0 0 0 0 0 0 0 0 0 0 0 0 0 0 0 0 0
11 14 9 5 7 2 2 0 0 0 2 12 15 0 0 0 0 0 0 0 0 0 0 0 0 0 0 0 0 0 0 0 0 0 0 0 0 0 0 0 0 0 0 0 0 0 0
16 12 8 2 0 0 1 0 4 6 9 21 7 0 0 0 0 0 0 0 0 0 0 0 0 0 0 0 0 0 0 0 0 0 0 0 0 0 0 0 0 0 0 0 0 0 0
15 9 5 3 0 0 0 8 18 20 13 14 0 0 0 0 0 0 0 0 0 0 0 0 0 0 0 0 0 0 0 0 0 0 0 0 0 0 0 0 0 0 0 0 0 0 0
4 5 5 10 9 13 19 27 30 30 19 30 4 0 0 0 0 0 0 0 0 0 0 0 0 0 0 0 0 0 0 0 0 0 0 0 0 0 0 0 0 0 0 0 0 0 0
2 3 13 15 9 15 19 34 26 35 23 1 0 0 0 0 0 0 0 0 0 0 0 0 0 0 0 0 0 0 0 0 0 0 0 0 0 0 0 0 0 0 0 0 0 0 0
16 17 29 17 7 20 35 39 26 35 24 4 0 0 0 9 0 0 0 0 0 0 0 0 0 0 0 0 0 0 0 0 0 0 0 0 0 0 0 0 0 0 0 0 0 0 0
26 29 27 16 29 41 55 51 34 40 22 8 0 0 0 0 4 0 1 0 0 0 0 0 0 0 0 0 0 0 0 0 0 0 0 0 0 0 0 0 0 0 0 0 0 0 0
24 10 14 33 14 58 74 58 31 30 17 0 0 0 0 7 6 1 0 8 0 0 0 0 0 0 0 0 0 0 0 0 0 0 0 0 0 0 0 0 0 0 0 0 0 0 0
12 9 5 20 28 68 81 62 19 10 13 2 1 1 2 0 24 16 0 0 0 0 0 0 0 0 0 0 0 0 0 0 0 0 0 0 0 0 0 0 0 0 0 0 0 0 0
15 12 6 27 72 79 63 35 12 1 23 0 0 0 0 0 1 0 1 9 0 0 0 0 0 0 0 0 0 0 0 0 0 0 0 0 0 0 0 0 0 0 0 0 0 0 0
2 18 8 29 17 28 63 51 24 2 33 1 2 3 1 0 0 0 3 11 3 18 7 0 0 0 0 0 5 1 0 0 0 0 0 0 0 0 0 0 0 0 0 0 0 0 0
7 11 10 17 19 9 42 38 6 7 32 19 3 2 18 6 0 6 2 17 1 4 1 0 0 0 0 0 0 1 0 0 0 0 0 0 0 0 0 0 0 0 0 0 0 0 0
2 14 11 18 23 22 15 33 4 8 24 3 0 12 11 0 4 3 3 7 27 14 2 0 0 0 0 0 0 0 0 0 0 0 0 0 0 0 0 0 0 0 0 0 0 0 0
1 3 3 18 7 24 22 10 0 1 20 0 0 9 2 1 2 2 1 3 1 1 0 0 0 0 0 0 0 0 0 0 0 0 0 0 0 0 0 0 0 0 0 0 0 0 0
1 1 4 12 15 8 25 11 0 9 30 1 2 5 12 1 0 1 1 0 0 1 0 0 0 0 0 0 0 0 0 0 0 0 0 0 0 0 0 0 0 0 0 0 0 0 0
CIN
-0 -0 -0 -0 -0 -0 -0 -0 -0 -0 -0 -0 -0 -0 -0 -0 -0 -0 -0 -0 -0 -0 -0 -0 -0 -0 -0 -0 -0 -0 -0 -0 -0 -0 -0 -0 -0 -0 -0 -0 -0 -0 -0 -0 -0 -0 -78
-0 -0 -0 -0 -0 -0 -0 -0 -0 -0 -0 -0 -0 -0 -0 -0 -0 -0 -0 -0 -0 -0 -0 -0 -0 -0 -0 -0 -0 -0 -0 -0 -0 -0 -0 -0 -0 -0 -0 -0 -0 -0 -0 -0 -0 -3 -0
-0 -0 -0 -0 -0 -0 -0 -0 -0 -0 -0 -0 -0 -0 -0 -0 -0 -0 -0 -0 -0 -0 -0 -0 -0 -0 -0 -0 -0 -0 -0 -0 -0 -0 -0 -0 -0 -0 -0 -0 -0 -0 -0 -0 -0 -0 -0
-0 -0 -0 -0 -0 -0 -0 -0 -0 -0 -0 -0 -0 -0 -0 -0 -0 -0 -0 -0 -0 -0 -0 -0 -0 -0 -0 -0 -0 -0 -0 -0 -0 -0 -0 -0 -0 -0 -0 -0 -0 -0 -0 -0 -0 -0 -0
-0 -0 -0 -1 -0 -0 -0 -0 -0 -0 -0 -0 -0 -0 -0 -0 -0 -0 -0 -0 -0 -0 -0 -0 -0 -0 -0 -0 -0 -0 -0 -0 -0 -0 -0 -0 -0 -0 -0 -0 -0 -0 -0 -0 -0 -0 -0
-0 -0 -0 -0 -0 -0 -0 -0 -0 -0 -0 -0 -0 -0 -0 -0 -0 -0 -0 -0 -0 -0 -0 -0 -0 -0 -0 -0 -0 -0 -0 -0 -0 -0 -0 -0 -0 -0 -0 -0 -0 -0 -0 -0 -0 -0 -0
-0 -0 -0 -0 -0 -0 -0 -0 -0 -0 -0 -0 -0 -0 -0 -0 -0 -0 -0 -0 -0 -0 -0 -0 -0 -0 -0 -0 -0 -0 -0 -0 -0 -0 -0 -0 -0 -0 -0 -0 -0 -0 -0 -0 -0 -0 -0
-0 -0 -0 -0 -0 -0 -0 -0 -0 -0 -0 -0 -0 -0 -0 -0 -0 -0 -0 -0 -0 -0 -0 -0 -0 -0 -0 -0 -0 -0 -0 -0 -0 -0 -0 -0 -0 -0 -0 -0 -0 -0 -0 -0 -0 -0 -0
-0 -0 -0 -0 -0 -0 -0 -0 -0 -0 -0 -0 -0 -0 -0 -0 -0 -0 -0 -0 -0 -0 -0 -0 -0 -0 -0 -0 -0 -0 -0 -0 -0 -0 -0 -0 -0 -0 -0 -0 -0 -0 -0 -0 -0 -0 -0
-0 -0 -0 -0 -0 -0 -0 -0 -0 -0 -0 -0 -0 -0 -0 -0 -0 -0 -0 -0 -0 -0 -0 -0 -0 -0 -0 -0 -0 -0 -0 -0 -0 -0 -0 -0 -0 -0 -0 -0 -0 -0 -0 -0 -0 -0 -0
-0 -0 -0 -0 -0 -0 -0 -0 -0 -0 -0 -0 -0 -0 -0 -0 -0 -0 -0 -0 -0 -0 -0 -0 -0 -0 -0 -0 -0 -0 -0 -0 -0 -0 -0 -0 -0 -0 -0 -0 -0 -0 -0 -0 -0 -0 -0
-1 -0 -0 -0 -0 -0 -0 -0 -0 -0 -0 -0 -0 -0 -0 -0 -0 -0 -0 -0 -0 -0 -0 -0 -0 -0 -0 -0 -0 -0 -0 -0 -0 -0 -0 -0 -0 -0 -0 -0 -0 -0 -0 -0 -0 -0 -0
-0 -0 -0 -0 -0 -0 -0 -0 -0 -0 -0 -3 -2 -7 -0 -0 -0 -0 -0 -0 -0 -0 -0 -0 -0 -0 -0 -0 -0 -0 -0 -0 -0 -0 -0 -0 -0 -0 -0 -0 -0 -0 -0 -0 -0 -0 -0
-0 -0 -0 -0 -0 -0 -0 -0 -0 -0 -3 -0 -1 -11 -0 -0 -0 -0 -0 -0 -0 -0 -0 -0 -0 -0 -0 -0 -0 -0 -0 -0 -0 -0 -0 -0 -0 -0 -0 -0 -0 -0 -0 -0 -0 -0 -0
-0 -0 -0 -0 -0 -0 -0 -0 -0 -0 -9 -2 -1 -0 -0 -0 -0 -0 -0 -0 -0 -0 -0 -0 -0 -0 -0 -0 -0 -0 -0 -0 -0 -0 -0 -0 -0 -0 -0 -0 -0 -0 -0 -0 -0 -0 -0
-0 -0 -0 -0 -0 -0 -0 -0 -6 -8 -12 -5 -2 -0 -0 -0 -0 -0 -0 -0 -0 -0 -0 -0 -0 -0 -0 -0 -0 -0 -0 -0 -0 -0 -0 -0 -0 -0 -0 -0 -0 -0 -0 -0 -0 -0 -0
-0 -0 -0 -0 -0 -0 -0 -1 -2 -2 -8 -9 -0 -0 -0 -0 -0 -0 -0 -0 -0 -0 -0 -0 -0 -0 -0 -0 -0 -0 -0 -0 -0 -0 -0 -0 -0 -0 -0 -0 -0 -0 -0 -0 -0 -0 -0
-0 -0 -0 -0 -0 -1 -1 -0 -3 -3 -9 -1 -14 -0 -0 -0 -0 -0 -0 -0 -0 -0 -0 -0 -0 -0 -0 -0 -0 -0 -0 -0 -0 -0 -0 -0 -0 -0 -0 -0 -0 -0 -0 -0 -0 -0 -0
-0 -0 -0 -0 -0 -0 -2 -0 -4 -5 -7 -0 -0 -0 -0 -0 -0 -0 -0 -0 -0 -0 -0 -0 -0 -0 -0 -0 -0 -0 -0 -0 -0 -0 -0 -0 -0 -0 -0 -0 -0 -0 -0 -0 -0 -0 -0
-0 -1 -0 -0 -0 -0 -0 -0 -3 -6 -7 -4 -0 -0 -0 -1 -0 -0 -0 -0 -0 -0 -0 -0 -0 -0 -0 -0 -0 -0 -0 -0 -0 -0 -0 -0 -0 -0 -0 -0 -0 -0 -0 -0 -0 -0 -0
-0 -0 -2 -3 -3 -1 -0 -0 -2 -6 -10 -2 -0 -0 -0 -0 -1 -0 -0 -0 -0 -0 -0 -0 -0 -0 -0 -0 -0 -0 -0 -0 -0 -0 -0 -0 -0 -0 -0 -0 -0 -0 -0 -0 -0 -0 -0
-0 -2 -1 -1 -4 -2 -0 -0 -4 -11 -9 -0 -0 -0 -0 -1 -9 -0 -0 -1 -0 -0 -0 -0 -0 -0 -0 -0 -0 -0 -0 -0 -0 -0 -0 -0 -0 -0 -0 -0 -0 -0 -0 -0 -0 -0 -0
-0 -0 -0 -0 -7 -1 -0 -1 -9 -21 -4 -0 -0 -0 -0 -0 -1 -4 -0 -0 -0 -0 -0 -0 -0 -0 -0 -0 -0 -0 -0 -0 -0 -0 -0 -0 -0 -0 -0 -0 -0 -0 -0 -0 -0 -0 -0
-0 -0 -0 -0 -0 -0 -0 -6 -13 -5 -2 -0 -0 -0 -0 -0 -3 -0 -0 -0 -0 -0 -0 -0 -0 -0 -0 -0 -0 -0 -0 -0 -0 -0 -0 -0 -0 -0 -0 -0 -0 -0 -0 -0 -0 -0 -0
-1 -0 -0 -0 -8 -10 -4 -5 -9 -18 -4 -0 -1 -0 -0 -0 -0 -0 -4 -0 -0 -4 -11 -0 -0 -0 -0 -4 -34 -7 -0 -0 -0 -0 -0 -0 -0 -0 -0 -0 -0 -0 -0 -0 -0 -0 -0
-0 -0 -0 -0 -0 -11 -10 -11 -19 -14 -4 -0 -0 -1 -0 -0 -0 -0 -1 -2 -1 -0 -0 -0 -0 -0 -0 -0 -0 -2 -0 -0 -0 -0 -0 -0 -0 -0 -0 -0 -0 -0 -0 -0 -0 -0 -0
-0 -0 -0 -0 -0 -2 -14 -12 -10 -8 -2 -0 -0 -2 -0 -0 -1 -0 -1 -1 -1 -0 -0 -0 -0 -0 -0 -0 -0 -0 -0 -0 -0 -0 -0 -0 -0 -0 -0 -0 -0 -0 -0 -0 -0 -0 -0
-0 -11 -3 -0 -1 -0 -6 -15 -0 -2 -0 -0 -1 -3 -0 -0 -0 -0 -0 -0 -0 -5 -0 -0 -0 -0 -0 -0 -0 -0 -0 -0 -0 -0 -0 -0 -0 -0 -0 -0 -0 -0 -0 -0 -0 -0 -0
-0 -0 -0 -0 -0 -0 -2 -9 -0 -3 -0 -0 -0 -1 -0 -0 -0 -0 -0 -0 -0 -0 -0 -0 -0 -0 -0 -0 -0 -0 -0 -0 -0 -0 -0 -0 -0 -0 -0 -0 -0 -0 -0 -0 -0 -0 -0
Wind_Speed
28 28 29 29 29 30 30 30 30 31 31 31 31 32 32 32 32 32 32 32 33 32 31 30 28 26 21 20 23 19 16 4 6 7 9 9 10 10 11 13 17 17 14 12 14 10 14
29 29 30 30 31 31 31 32 32 32 32 33 33 33 33 33 33 33 34 34 34 33 33 31 27 23 20 24 20 19 13 7 9 10 13 11 13 12 14 13 13 14 11 12 14 14 13
29 29 30 31 31 33 33 33 33 34 34 34 34 35 35 35 35 35 35 36 35 36 34 30 24 19 21 24 15 14 14 15 13 11 14 13 14 14 16 14 11 12 12 14 13 14 15
33 33 32 31 32 32 34 34 34 35 35 36 36 36 36 36 36 37 37 37 37 35 28 23 18 18 25 21 22 23 17 20 18 18 16 16 14 18 15 16 14 15 13 14 14 17 19
34 35 35 35 33 33 34 35 36 36 36 37 37 37 37 37 38 38 38 38 35 24 19 15 17 20 27 24 23 22 15 17 16 18 18 15 14 18 16 15 17 15 14 16 19 15 17
35 36 37 37 37 37 36 36 36 37 37 38 38 39 39 39 39 38 39 37 27 22 19 19 21 23 26 20 19 18 15 14 17 16 15 15 15 16 17 16 19 18 16 15 18 18 15
37 37 38 38 38 39 39 37 37 38 38 38 39 40 40 40 40 39 36 26 25 24 24 25 22 24 23 22 21 20 13 13 16 16 16 15 18 18 17 18 17 16 19 22 28 22 17
37 38 39 39 40 40 40 40 39 38 39 39 39 40 41 41 41 39 26 24 23 29 35 34 40 38 34 24 25 23 13 17 17 19 18 21 22 18 19 16 17 18 20 24 28 25 13
38 39 40 41 41 41 42 42 42 41 39 40 40 39 40 41 42 27 28 23 29 28 33 37 31 29 30 20 27 27 17 17 20 19 21 24 17 17 17 19 17 17 18 23 22 19 15
41 41 41 41 41 42 42 43 43 44 40 40 39 39 39 40 29 31 26 30 30 25 36 37 31 32 20 20 29 24 18 18 22 19 20 26 24 20 17 18 15 23 15 17 21 14 20
41 42 42 43 43 43 43 43 43 43 42 39 39 38 37 32 35 30 29 32 28 21 41 28 26 23 19 21 19 26 20 22 21 20 18 20 16 17 18 14 12 18 23 18 11 17 19
43 43 44 44 44 44 44 44 44 43 42 39 37 37 35 33 31 31 33 31 21 31 45 30 22 21 20 26 21 17 21 22 23 22 24 24 19 15 12 18 11 18 16 13 18 20 25
43 44 45 45 44 45 46 46 46 44 43 42 38 37 34 31 34 28 32 25 34 45 31 36 28 22 24 27 25 22 20 22 21 20 19 23 27 24 21 26 20 17 16 19 21 23 24
47 47 46 46 46 46 46 46 45 45 42 42 39 37 37 36 30 31 30 32 47 49 47 27 29 26 28 24 31 28 23 27 28 22 22 22 27 20 18 19 21 18 14 16 19 22 28
45 47 47 47 45 45 44 43 44 43 42 40 40 37 39 39 33 28 32 49 55 47 38 41 29 31 33 29 25 30 35 32 26 23 21 18 24 23 22 20 18 19 19 17 18 21 22
46 45 45 44 41 42 41 41 42 41 39 36 36 38 46 31 23 29 42 57 51 43 36 35 41 32 36 32 28 26 30 32 31 24 22 21 22 22 23 21 24 22 14 19 19 21 24
44 41 41 39 39 39 39 39 39 38 37 36 33 39 36 27 24 37 54 58 54 41 36 34 40 39 33 34 35 32 32 30 25 25 23 26 26 24 20 21 21 21 23 22 19 21 23
41 38 37 35 36 36 38 40 40 39 37 36 29 39 30 19 38 44 59 53 46 47 42 38 33 35 35 30 33 35 36 28 25 24 27 25 24 32 28 22 21 21 24 21 26 25 24
35 34 33 34 36 37 42 41 40 39 35 26 32 34 28 26 45 50 54 56 50 46 45 37 37 33 30 32 32 31 30 28 28 25 26 24 30 29 29 27 26 26 22 22 23 23 26
32 31 30 36 40 43 43 41 40 38 36 29 28 32 33 30 39 47 51 56 54 48 46 39 35 33 31 34 31 30 29 25 25 27 26 21 29 31 29 27 22 26 25 20 22 29 28
31 30 35 39 43 44 42 40 39 38 37 34 36 35 29 32 41 49 43 47 56 49 51 39 41 44 37 36 35 38 32 30 25 22 23 25 33 31 31 29 26 26 26 23 24 25 27
32 36 41 41 43 39 40 39 38 36 34 37 37 33 31 30 34 44 49 47 50 50 47 53 53 42 41 45 37 32 35 31 30 26 25 25 31 28 30 26 27 27 23 22 24 25 28
37 42 41 43 41 36 36 36 36 36 33 33 35 33 28 29 32 37 50 52 46 42 46 47 44 48 50 45 38 38 34 32 29 27 27 26 27 28 30 25 25 34 28 25 25 24 25
41 41 41 41 39 36 35 35 35 37 36 32 32 30 30 32 34 40 30 39 53 43 43 36 42 45 44 35 30 28 28 28 29 29 26 27 26 27 30 26 35 31 24 25 25 25 24
40 40 38 38 35 35 34 35 35 37 37 34 29 28 29 32 35 39 37 34 29 45 40 37 33 33 32 28 34 35 35 33 32 29 29 28 28 30 32 33 31 28 24 24 26 28 23
38 38 36 35 33 31 33 35 35 35 37 36 35 30 28 27 34 33 38 36 30 33 42 38 31 28 28 32 34 40 39 35 35 31 26 25 26 32 32 38 41 30 24 22 22 36 22
37 35 35 33 31 29 31 33 34 34 36 34 30 29 26 24 28 28 34 34 33 25 29 29 29 28 27 33 37 40 40 32 37 36 34 32 32 35 35 37 35 27 25 22 33 35 19
35 34 34 33 31 29 30 32 32 33 33 31 27 23 23 23 24 24 24 28 27 25 24 25 26 29 29 34 34 34 36 34 32 30 32 34 36 37 34 37 40 22 23 30 23 16 15
34 33 33 32 30 29 28 31 32 31 24 29 27 25 21 18 21 21 20 19 22 24 23 23 25 24 25 29 28 28 30 30 31 34 25 31 29 31 30 32 25 23 21 17 17 17 20
Wind_Direction
330 326 322 322 322 322 322 319 317 316 315 314 312 310 308 305 303 300 297 296 294 293 292 292 287 285 288 284 272 287 288 235 228 256 268 272 273 289 300 324 332 342 353 2 356 16 4
332 328 327 323 319 318 317 317 316 314 312 311 311 309 307 307 304 301 298 295 292 289 286 285 286 288 286 275 278 287 281 255 252 254 262 265 274 287 302 318 332 346 351 349 348 346 1
330 331 326 325 322 317 315 313 313 312 311 310 309 307 306 304 302 301 298 295 292 288 284 279 285 290 283 272 281 293 282 263 266 259 260 262 269 293 303 309 330 340 340 346 352 348 348
323 324 322 323 322 319 316 314 313 310 309 308 307 306 304 303 301 298 296 295 292 289 287 289 294 291 278 282 273 273 274 267 267 263 263 268 272 286 294 300 312 318 328 327 339 337 333
320 319 318 317 317 317 315 312 311 310 308 306 305 304 303 302 300 298 296 292 291 302 307 307 293 285 275 275 264 263 268 269 266 263 260 270 278 283 289 290 295 310 309 317 325 348 349
320 318 316 316 315 310 310 310 309 308 309 307 304 302 301 301 300 298 297 290 294 301 302 296 287 281 274 275 270 265 268 270 266 267 259 264 279 275 280 284 280 288 304 315 317 332 341
321 319 316 314 312 311 309 307 307 306 306 306 305 303 300 299 298 298 301 303 293 289 286 274 281 272 279 280 272 263 265 266 265 263 253 264 268 263 271 281 286 288 295 297 292 312 326
321 319 317 315 312 309 308 308 305 304 303 303 305 303 300 298 296 295 301 295 296 287 275 268 257 260 262 278 270 262 251 252 255 254 257 261 263 270 276 284 283 283 289 290 291 304 321
321 320 318 316 314 311 306 304 304 301 300 300 300 302 302 298 292 295 288 292 297 296 277 271 271 269 264 268 261 257 251 246 254 254 256 256 271 268 273 279 278 281 289 291 299 318 327
320 319 318 317 315 312 308 303 301 300 297 297 297 298 302 301 291 289 280 292 296 298 274 268 270 265 264 261 260 257 257 246 255 252 260 262 264 271 275 269 275 279 295 299 301 312 311
320 319 318 316 315 314 312 308 302 301 299 295 295 296 297 300 286 281 282 289 291 289 263 272 268 271 256 241 266 254 252 251 247 254 253 263 265 262 265 259 279 283 291 300 303 307 307
318 316 315 313 312 311 310 308 306 300 299 294 292 291 292 289 284 280 287 284 278 260 254 265 267 256 250 243 251 269 248 250 255 253 258 257 271 270 263 268 282 287 302 299 298 299 292
318 316 314 313 312 310 307 305 302 298 295 292 286 285 282 281 272 282 286 268 251 246 260 257 258 257 247 244 242 253 248 233 240 243 247 261 260 263 266 264 279 286 286 283 287 288 290
316 315 313 312 310 308 306 303 300 297 293 289 285 281 274 271 275 275 273 247 244 247 244 268 259 253 246 246 244 243 251 240 243 248 254 253 259 251 262 262 270 278 277 277 284 287 287
318 315 313 311 309 308 304 302 297 293 290 286 281 275 269 266 267 263 250 239 240 242 250 247 261 249 246 246 250 243 247 248 243 238 248 251 263 269 257 261 266 273 274 284 285 290 294
317 316 314 312 309 308 304 300 296 291 288 284 276 270 263 265 259 250 241 238 241 243 251 246 246 252 246 244 244 244 246 252 248 241 241 262 268 269 265 263 266 267 277 278 283 281 285
319 317 316 313 309 307 303 298 294 288 284 279 271 265 265 256 246 241 235 237 239 244 246 251 245 249 252 246 246 247 253 256 245 245 238 251 262 265 273 264 259 264 267 274 284 283 281
320 318 317 314 309 305 301 293 285 279 274 270 263 258 262 236 238 237 234 236 241 239 245 248 252 248 248 250 249 248 250 257 254 245 239 242 263 261 264 270 273 268 269 264 267 276 285
321 319 317 315 310 303 293 284 276 270 265 267 254 260 260 240 237 235 235 238 240 239 238 243 244 249 250 248 250 252 256 261 262 250 243 241 253 261 266 266 265 267 273 277 273 276 270
323 320 317 313 304 294 284 274 269 264 257 257 255 251 252 246 243 237 235 235 235 239 240 242 245 248 248 247 252 254 256 262 266 259 254 240 252 251 251 266 267 265 268 274 269 267 271
326 321 314 308 298 288 279 269 264 258 251 246 241 247 252 248 240 235 238 237 234 236 237 241 243 242 245 249 250 250 256 261 264 262 258 249 253 258 264 263 265 270 264 265 268 272 272
332 321 311 307 297 291 274 262 259 255 251 242 238 245 254 257 246 235 234 236 235 236 237 236 240 243 245 246 248 255 253 257 258 259 258 258 260 260 263 263 260 264 267 267 271 275 279
324 310 307 295 287 290 268 257 256 252 247 245 240 245 259 256 245 239 234 235 238 239 240 240 243 244 245 246 251 256 259 259 259 257 256 258 256 258 258 261 264 263 261 265 273 279 281
310 308 297 292 281 277 263 255 256 248 245 246 245 245 252 251 242 236 241 240 237 238 239 243 243 244 246 250 254 257 257 258 255 257 259 256 256 259 259 260 259 269 272 271 271 279 283
302 304 298 292 289 266 259 255 254 247 235 237 241 248 249 252 247 241 245 247 248 238 242 243 248 248 248 238 241 245 248 251 254 256 256 256 254 258 257 257 269 271 271 269 271 276 283
297 296 298 294 290 274 257 253 250 244 238 238 239 245 251 253 247 245 241 238 247 249 236 241 250 253 237 238 237 240 241 245 248 250 258 257 257 255 261 260 262 268 274 280 282 275 281
293 292 298 292 291 281 260 251 247 242 238 230 233 236 242 253 254 249 240 243 238 248 237 237 240 241 239 235 238 240 244 249 247 246 250 253 255 254 259 264 270 272 276 280 270 279 283
290 287 289 293 286 282 263 250 244 244 242 229 237 240 243 254 256 254 253 247 243 244 239 238 238 239 238 237 240 242 248 247 251 252 253 252 252 257 262 264 265 275 276 271 282 291 288
285 284 286 291 285 276 266 247 241 240 237 224 235 240 247 261 258 255 260 264 259 252 253 246 238 239 244 241 247 245 250 250 248 249 263 256 262 261 264 267 279 282 281 285 286 284 287